Regional Weather Roundup
Issued by NWS

Home | Current Version | Previous Version | Graphics & Text | Print | Product List | Glossary On
Versions: 1 2 3 4 5 6 7 8 9 10 11 12 13 14 15 16 17 18 19 20 21 22 23 24 25 26 27 28 29 30 31 32 33 34 35 36 37 38 39 40 41 42 43 44 45 46 47 48 49 50
000
ASUS43 KMKX 230721
RWRWI

WISCONSIN REGIONAL WEATHER ROUNDUP
NATIONAL WEATHER SERVICE MILWAUKEE/SULLIVAN WI
200 AM CDT FRI JUN 23 2017

NOTE: "FAIR" INDICATES FEW OR NO CLOUDS BELOW 12,000 FEET WITH NO
SIGNIFICANT WEATHER AND/OR OBSTRUCTIONS TO VISIBILITY.

WIZ001-002-006>008-014>016-023>028-230800-
NORTHWEST WISCONSIN

CITY           SKY/WX    TMP DP  RH WIND       PRES   REMARKS
SUPERIOR ARPT  NOT AVBL
ASHLAND        CLEAR     56  51  84 SW8       29.67F
HAYWARD        FOG       49  47  93 CALM      29.69F VSB 1
SIREN          CLEAR     54  51  88 CALM      29.70F
CUMBERLAND     CLEAR     55  52  88 W3        29.71F
RICE LAKE      CLEAR     60  57  91 W3        29.72F
CHETEK         CLEAR     57  57 100 W3        29.71F
LADYSMITH      PTCLDY    58  57  98 CALM      29.72F
EAU CLAIRE     CLEAR     60  60 100 SW3       29.71S FOG
MENOMONIE      CLEAR     60  60  99 CALM      29.72S
NEW RICHMOND   CLEAR     57  56  96 W5        29.73F
OSCEOLA        CLEAR     56  56 100 CALM      29.75F
$$

WIZ003>005-009-010-017-018-230800-
NORTH CENTRAL WISCONSIN

CITY           SKY/WX    TMP DP  RH WIND       PRES   REMARKS
MANITOWISH WTR FOG       53  53 100 CALM      29.70S VSB 3/4
ARBOR VITAE    CLOUDY    59  57  92 CALM      29.70S
WOODRUFF       CLOUDY    59  57  92 CALM      29.70S
RHINELANDER    FOG       55  55 100 CALM      29.72R VSB 1/2
EAGLE RIVER    FOG       54  54 100 CALM      29.69F VSB 1/2
LAND O LAKES   CLOUDY    58  55  91 CALM      29.71F
PHILLIPS       CLOUDY    57  57 100 CALM      29.70S
TOMAHAWK       NOT AVBL
MEDFORD        CLOUDY    59  59  97 W3        29.72S
MERRILL        CLOUDY    61  61 100 CALM      29.72S
$$

WIZ029-030-035-036-043>047-230800-
CENTRAL WISCONSIN

CITY           SKY/WX    TMP DP  RH WIND       PRES   REMARKS
WAUSAU         CLOUDY    62  61  96 W5        29.70S
MOSINEE        CLOUDY    61  61 100 W3        29.73S
MARSHFIELD     CLOUDY    63  60  90 NW3       29.71F
STEVENS POINT  CLOUDY    63  63 100 NW3       29.71F
WAUPACA        CLOUDY    67  67  99 NW5       29.69F FOG
WAUTOMA        LGT RAIN  65  64  97 NW5       29.70F
WISC RAPIDS    CLOUDY    66  65  96 N6        29.73F
CAMP DOUGLAS   CLOUDY    64  64 100 NW5       29.71R
$$

WIZ011>013-019>022-031-037>040-048>050-230800-
NORTHEAST WISCONSIN

CITY           SKY/WX    TMP DP  RH WIND       PRES   REMARKS
ANTIGO         CLOUDY    60  60 100 NW6       29.71S
SHAWANO        CLOUDY    66  65  96 SW5       29.69R
OCONTO         MOCLDY    65  64  98 SW3       29.64F
STURGEON BAY     N/A     66  66 100 W6          N/A  FOG
GREEN BAY      LGT RAIN  66  66 100 W6        29.67R
MANITOWOC      RAIN      67  65  93 W6        29.68R
APPLETON       RAIN      64  64 100 W5        29.67S
CLINTONVILLE   CLOUDY    64  64 100 SW5       29.70R
OSHKOSH        LGT RAIN  66  65  96 N3        29.66F
$$

WIZ032>034-041-042-053>061-230800-
SOUTHWEST WISCONSIN

CITY           SKY/WX    TMP DP  RH WIND       PRES   REMARKS
LA CROSSE      CLOUDY    68  68 100 NW5       29.73R
SPARTA         FOG       64  64 100 NW3       29.73S VSB 1
VIROQUA        CLOUDY    64  64 100 N5        29.73F
BOSCOBEL       TSTM      66  65  96 N5        29.74R FOG
PRAIRIE DU CHI LGT RAIN  66  64  91 E8        29.70R
PLATTEVILLE    CLOUDY    66  66 100 N6        29.67F
$$

WIZ056-057-062-063-064-067-068-230800-
SOUTH CENTRAL WISCONSIN

CITY           SKY/WX    TMP DP  RH WIND       PRES   REMARKS
REEDSBURG      RAIN      64  64 100 CALM      29.69S
BARABOO/DELLS  RAIN      64  63  94 CALM      29.69S
LONE ROCK      CLOUDY    66  63  90 N7        29.68F
MINERAL POINT  RAIN      64  64 100 N13G20    29.69R
MADISON        RAIN      65  64  97 NE6       29.65F FOG
MIDDLETON      CLOUDY    66  66 100 N3        29.70R
WATERTOWN      CLOUDY    65  65 100 N8        29.65F
MONROE         CLOUDY    70  68  94 N15G25    29.66S THUNDER
JANESVILLE     CLOUDY    77  72  83 SW10      29.63F
$$

WIZ051-052-058>065-066-070>072-230800-
SOUTHEAST WISCONSIN

CITY           SKY/WX    TMP DP  RH WIND       PRES   REMARKS
MILWAUKEE      LGT RAIN  67  64  90 N10       29.66S
WAUKESHA       CLOUDY    64  64 100 NE8       29.66F
MILWAUKEE/TIMM LGT RAIN  66  63  88 NE7       29.67S
RACINE         CLOUDY    65  63  93 N8        29.68S
KENOSHA        CLOUDY    75  71  87 SW10      29.64F
FOND DU LAC    LGT RAIN  67  64  90 NW3       29.68F
SHEBOYGAN      RAIN      66  66 100 NE8       29.64F FOG
WEST BEND      HVY RAIN  64  63  94 NE7       29.66S
JUNEAU         CLOUDY    64  64  97 N3        29.68F
$$

LSZ147-162-230800-
LAKE SUPERIOR

STATION/POSITION TIME  TEMP    WIND        PRES    WAVE
                       AIR SEA DIR/SP/G            HT/PER
                 (UTC) (F)     (DEG/KT/KT) (MB)    (FT/S)
W MID LAKE BUOY  0650   45 39  220/  8/ 10 1003.3F   1/ 3
DEVILS ISLAND    0700   60     210/ 12/ 13 1003.3F
SAXON HARBOR     0630   59     190/  5/  8 1004.4S
$$

LMZ867-665-643>646-230800-
LAKE MICHIGAN

STATION/POSITION TIME  TEMP    WIND        PRES    WAVE
                       AIR SEA DIR/SP/G            HT/PER
                 (UTC) (F)     (DEG/KT/KT) (MB)    (FT/S)
CHAMBERS ISLAND  0640   65     210/  5/  8 1004.1R
S GREEN BAY BUOY 0700   67     240/  8/  8 1004.0
N MID LAKE BUOY  0650   58 54  200/  8/  8 1003.8F   1/ 5
NORTHPORT PIER   0640   65     220/  3/  4 1003.7F
KEWAUNEE LAKESHO 0654   66     300/  3/  7 1003.7F
SHEBOYGAN LAKESH 0700   67     330/  7/  8 1003.9F
PORT WASHINGTON  0630   67     340/  3/  7 1006.1S
ATWATER BUOY     0509   61 59   10/  6/  8 1005.0F
MILWAUKEE LAKESH 0700   65      30/ 14/ 15   N/A
S MID LAKE BUOY  0650   66 61  210/ 14/ 17 1003.6R   3/ 4
KENOSHA   LAKESH 0700   76     220/  9/ 14 1003.7
$$

TC  - TEMPERATURE IN CELSIUS
VSB - VISIBILITY IN STATUTE MILES
WCI - WIND CHILL INDEX
HX  - HEAT INDEX





USA.gov is the U.S. government's official web portal to all federal, state and local government web resources and services.